Find Local Weather

World > North America > United States > New York

Solon Pond, New York Regional Weather

Lat: 42.62N, Lon: 75.92W
Wx Zone: NYZ044
Feedback
Expires:201811161900;;401292
ASUS41 KALY 161810
RWRALY

NEW YORK STATE HOURLY WEATHER ROUNDUP
NATIONAL WEATHER SERVICE ALBANY NY
100 PM EST FRI NOV 16 2018

NOTE: "FAIR" INDICATES FEW OR NO CLOUDS BELOW 12,000 FEET WITH NO
SIGNIFICANT WEATHER AND/OR NO OBSTRUCTIONS TO VISIBILITY.


NYZ005>009-017-018-044>046-055-056-161900-
CENTRAL

  
CITY           SKY/WX    TMP DP  RH WIND       PRES   REMARKS
FULTON         LGT SNOW  33  29  85 SW9       29.68F FOG     WCI  25  
SYRACUSE       LGT SNOW  33  31  92 SW9       29.70S FOG     WCI  25  
ROME           LGT SNOW  31  30  96 SW6       29.71S FOG     WCI  25  
ELMIRA         LGT RAIN  39  31  72 W13G23    29.71F WCI  31          
BINGHAMTON     CLOUDY    31  29  92 W9        29.66F WCI  23          
MONTICELLO     MIX PCPN  32  29  88 W10G21    29.68S WCI  24          
$$


SKY/WX - Weather  TMP - Temperature  DP - Dew Point  RH - Relative Humidity
WIND - Wind Direction/Speed PRES - Barometric Pressure